Weather History for EGQL - March, 2013

Change the Weather History Date:

Monday, March 4, 2013

  Actual Average Record
Temperature  
Mean Temperature 38 °F -  
Max Temperature 45 °F 47 °F 53 °F (2011)
Min Temperature 30 °F 35 °F 26 °F (2001)
Degree Days  
Heating Degree Days 27    
Moisture  
Dew Point 33 °F    
Average Humidity 76    
Maximum Humidity 100    
Minimum Humidity 45    
Precipitation  
Precipitation 0.00 in - - ()
Sea Level Pressure  
Sea Level Pressure 29.92 in    
Wind  
Wind Speed 4 mph ()    
Max Wind Speed 10 mph    
Max Gust Speed -    
Visibility 6.5 miles    
Events      
Averages and records for this station are not official NWS values.
T = Trace of Precipitation, MM = Missing Value Source: Averaged Metar Reports

Daily Weather History Graph

Daily Weather History Graph

Search for Another Location

Airport or City:

Trip Planner

Search our weather history database for the weather conditions in past years. The results will help you decide how hot, cold, wet, or windy it might be!

Date:

Astronomy

Mar. 04, 2013 Rise Set
Actual Time 6:55 AM GMT 5:51 PM GMT
Civil Twilight 6:18 AM GMT 6:29 PM GMT
Nautical Twilight 5:34 AM GMT 7:12 PM GMT
Astronomical Twilight 4:50 AM GMT 7:57 PM GMT
Moon 1:36 AM GMT (3/4) 9:31 AM GMT (3/4)
Length of Visible Light 12h 11m
Length of Day
10h 56m
Waning Gibbous, 55% of the Moon is Illuminated
Mar 4
Waning Gibbous
Mar 4
Last Quarter
Mar 11
New
Mar 19
First Quarter
Mar 27
Full

Hourly Weather History & Observations

Time (GMT) Temp. Windchill Dew Point Humidity Pressure Visibility Wind Dir Wind Speed Gust Speed Precip Events Conditions
12:50 AM 41.0 °F - 35.6 °F 81% 30.09 in 6.2 mi WSW 2.3 mph - N/A   Overcast
1:50 AM 41.0 °F 39.0 °F 35.6 °F 81% 30.06 in 6.2 mi West 3.5 mph - N/A   Overcast
2:50 AM 42 °F - 34 °F 64% 30.06 in 11 mi West 3.5 mph - -   Overcast
2:50 AM 42.8 °F 41.1 °F 33.8 °F 70% 30.04 in 6.2 mi West 3.5 mph - N/A   Overcast
3:50 AM 41.0 °F 38.0 °F 35.6 °F 81% 30.04 in 6.2 mi WSW 4.6 mph - N/A   Overcast
4:50 AM 41.0 °F 38.0 °F 35.6 °F 81% 30.01 in 6.2 mi SW 4.6 mph - N/A   Overcast
5:50 AM 41 °F - 34 °F 69% 30.02 in 10 mi SW 4.6 mph - -   Overcast
5:50 AM 41.0 °F 38.0 °F 33.8 °F 76% 30.01 in 6.2 mi SW 4.6 mph - N/A   Overcast
6:50 AM 41.0 °F 39.0 °F 35.6 °F 81% 30.01 in 6.2 mi WSW 3.5 mph - N/A   Overcast
7:50 AM 41.0 °F 36.4 °F 33.8 °F 76% 29.98 in 6.2 mi South 6.9 mph - N/A   Overcast
8:50 AM 43 °F - 34 °F 61% 30.00 in 9 mi South 5.8 mph - -   Overcast
8:50 AM 42.8 °F 39.3 °F 33.8 °F 70% 29.98 in 6.2 mi South 5.8 mph - N/A   Overcast
9:50 AM 42.8 °F 37.5 °F 32.0 °F 66% 29.98 in 6.2 mi South 9.2 mph - N/A   Overcast
10:50 AM 44.6 °F 41.4 °F 30.2 °F 57% 29.95 in 6.2 mi South 5.8 mph - N/A   Mostly Cloudy
11:50 AM 44 °F - 30 °F 45% 29.96 in 12 mi South 9.2 mph - -   Overcast
11:50 AM 44.6 °F 39.7 °F 30.2 °F 57% 29.95 in 6.2 mi South 9.2 mph - N/A   Overcast
12:50 PM 42.8 °F 37.0 °F 33.8 °F 70% 29.92 in 6.2 mi SSE 10.4 mph - N/A   Overcast
1:50 PM 42.8 °F 38.0 °F 33.8 °F 70% 29.89 in 6.2 mi SE 8.1 mph - N/A   Mostly Cloudy
2:50 PM 42 °F - 33 °F 61% 29.88 in 7 mi SE 8.1 mph - -   Haze
2:50 PM 42.8 °F 38.0 °F 33.8 °F 70% 29.86 in 6.2 mi SE 8.1 mph - N/A   Mostly Cloudy
3:50 PM 41.0 °F 35.2 °F 33.8 °F 76% 29.83 in 6.2 mi ESE 9.2 mph - N/A   Mostly Cloudy
4:50 PM 41.0 °F 36.4 °F 33.8 °F 76% 29.83 in 6.2 mi ESE 6.9 mph - N/A   Mostly Cloudy
5:50 PM 39 °F - 34 °F 76% 29.83 in 7 mi SE 4.6 mph - -   Haze
5:50 PM 39.2 °F 35.9 °F 33.8 °F 81% 29.80 in 6.2 mi SE 4.6 mph - N/A   Mostly Cloudy
6:50 PM 35.6 °F - 32.0 °F 87% 29.80 in 6.2 mi ENE 2.3 mph - N/A   Mostly Cloudy
7:50 PM 33.8 °F - 32.0 °F 93% 29.80 in 5.0 mi ENE 2.3 mph - N/A   Haze
8:50 PM 32.0 °F - 32.0 °F 100% 29.77 in 5.0 mi NE 1.2 mph - N/A   Haze
9:50 PM 32.0 °F - 32.0 °F 100% 29.77 in 5.0 mi North 2.3 mph - N/A   Haze
10:50 PM 32.0 °F - 32.0 °F 100% 29.77 in 3.1 mi North 2.3 mph - N/A   Mostly Cloudy
11:50 PM 31 °F - 29 °F 88% 29.76 in 3 mi West 1.2 mph - -   Mist
11:50 PM 30.2 °F - 28.4 °F 93% 29.74 in - West 1.2 mph - N/A   Mostly Cloudy